Home   Weather   Pirna   Past weeks

Flag for Germany Past Weather in Pirna, Saxony, Germany — Yesterday and Last 2 Weeks

Now
27 °F

Passing clouds.


Feels Like: 27 °F
Forecast: 17 / 28 °F
Wind: 2 mph from South

Location: Dresden-Klotzsche

Current Time: Jan 20, 2017 at 11:34:39 pm

Latest Report: Jan 20, 2017 at 10:50 pm


Visibility: 4 mi

Pressure: 30.51 "Hg

Humidity: 86%

Dew Point: 23 °F

Location of PirnaLocation

Past Weather in Pirna — Graph

°F

Pirna Temperature Yesterday

Maximum temperature yesterday: 23 °F (at 1:20 pm)
Minimum temperature yesterday: 12 °F (at 6:20 am)
Average temperature yesterday: 16 °F

High & Low Weather Summary for the Past Weeks

 TemperatureHumidityPressure
High41 °F (Jan 13, 6:20 am)100% (Jan 7, 9:20 pm)30.72 "Hg (Jan 7, 9:20 pm)
Low10 °F (Jan 6, 4:50 am)57% (Jan 13, 7:20 am)29.12 "Hg (Jan 13, 5:50 am)
Average26 °F89%30.17 "Hg
* Reported Jan 5 10:20 pm — Jan 20 10:20 pm, Pirna, Weather by CustomWeather, © 2017

Note: Actual official high and low records may vary slightly from our data, if they occured in-between our weather recording intervals... More about our weather records

Advertising

Pirna Weather History for the Previous 24 Hours

Scroll right to see more
 ConditionsComfort  
Time TempWeatherWind HumidityBarometerVisibility
10:20 pm
Fri, Jan 20
28 °FPassing clouds.1 mph86%30.51 "Hg4 mi
9:50 pm28 °FPassing clouds.2 mph86%30.51 "Hg4 mi
9:20 pm28 °FPassing clouds.3 mph86%30.51 "Hg4 mi
8:50 pm28 °FPassing clouds.2 mph86%30.51 "Hg4 mi
8:20 pm28 °FPassing clouds.2 mph86%30.54 "Hg4 mi
7:50 pm28 °FPassing clouds.2 mph86%30.54 "Hg4 mi
7:20 pm28 °FPassing clouds.No wind86%30.54 "Hg4 mi
6:50 pm28 °FPassing clouds.2 mph86%30.54 "Hg5 mi
6:20 pm28 °FPassing clouds.3 mph86%30.51 "Hg5 mi
5:50 pm28 °FPassing clouds.5 mph86%30.54 "Hg5 mi
5:20 pm30 °FPassing clouds.3 mph80%30.54 "Hg5 mi
4:50 pm30 °FPassing clouds.No wind80%30.54 "Hg5 mi
4:20 pm30 °FPartly sunny.1 mph80%30.54 "Hg6 mi
3:50 pm30 °FPartly sunny.No wind80%30.54 "Hg6 mi
3:20 pm30 °FPartly sunny.2 mph75%30.54 "Hg6 mi
2:50 pm30 °FPartly sunny.2 mph75%30.54 "HgN/A
2:20 pm28 °FPartly sunny.1 mph80%30.54 "HgN/A
1:50 pm28 °FPartly sunny.3 mph80%30.54 "HgN/A
1:20 pm28 °FPartly sunny.3 mph74%30.54 "HgN/A
12:50 pm28 °FPartly sunny.5 mph80%30.54 "HgN/A
12:20 pm27 °FPartly sunny.2 mph80%30.57 "HgN/A
11:50 am27 °FOvercast.2 mph80%30.57 "HgN/A
11:20 am25 °FOvercast.3 mph86%30.57 "HgN/A
10:50 am25 °FOvercast.5 mph86%30.57 "HgN/A
10:20 am25 °FPartly sunny.2 mph86%30.60 "HgN/A
9:50 am25 °FPartly sunny.5 mph86%30.57 "HgN/A
9:20 am25 °FPartly sunny.3 mph80%30.57 "HgN/A
8:50 am23 °FPartly sunny.3 mph86%30.57 "Hg6 mi
8:20 am23 °FPartly sunny.3 mph86%30.57 "Hg5 mi
7:50 am23 °FPassing clouds.6 mph86%30.57 "Hg5 mi
7:20 am23 °FPassing clouds.5 mph86%30.57 "Hg5 mi
6:50 am23 °FPassing clouds.5 mph86%30.57 "Hg5 mi
6:20 am23 °FPassing clouds.1 mph86%30.57 "Hg6 mi
5:50 am23 °FPassing clouds.1 mph86%30.57 "HgN/A
5:20 am23 °FPassing clouds.1 mph86%30.57 "HgN/A
4:50 am23 °FPartly cloudy.1 mph86%30.57 "HgN/A
4:20 am21 °FPartly cloudy.2 mph93%30.57 "HgN/A
3:50 am21 °FPassing clouds.2 mph93%30.57 "HgN/A
3:20 am21 °FPassing clouds.1 mph86%30.60 "HgN/A
2:50 am19 °FClear.7 mph93%30.60 "Hg10 mi
2:20 am19 °FClear.7 mph93%30.60 "Hg6 mi
1:50 am19 °FClear.6 mph93%30.60 "Hg6 mi
1:20 am19 °FClear.2 mph93%30.60 "Hg6 mi
12:50 am19 °FClear.2 mph93%30.60 "Hg6 mi
12:20 am19 °FClear.3 mph93%30.60 "Hg5 mi
11:50 pm
Thu, Jan 19
18 °FClear.5 mph93%30.60 "Hg5 mi
11:20 pm18 °FClear.1 mph93%30.63 "Hg5 mi
Weather by CustomWeather, © 2017

See weather overviewHow to use our weather pages